COSMOS 1275 DEB, 42101

Orbit data source: Space-Track

COSMOS 1275 DEB, 42101 is space debris in LEO originally from a launch on Thu, 04 Jun 1981 UTC launched from the Plesetsk Missile And Space Complex (PKMTR). Debris objects in space refer to the collection of defunct objects orbiting the Earth. Examples of debris include non-operational satellites, rocket bodies, and fragments generated from explosions, collisions, or faulty payload assembly.

Loading next visibility...
Identifier
42101, 1981-053PM
Orbit
LEO
Country
Flag of CISCIS
Related business
Manufacturer
Unknown
Mission
Spacecraft
Bus & Motor
Unknown
Mass
Unknown
Launch date (UTC)
1981-06-04 (45 years ago)
Launch vehicle
Unknown
Launch site
Plesetsk Missile And Space Complex (PKMTR)
Object type
Payload
Rocket body
Debris
Shape & HBR
Unknown shape, 0.1 m
Radar Cross Section
Small (<0.1 m²)

Expand to show TLE details & history
Last TLE update: 2 days ago

TLE from 2 days ago
0 COSMOS 1275 DEB
1 42101U 81053PM  26143.60947803  .00037765  00000-0  30202-2 0  9995
2 42101  82.7533 268.8944 0005337 183.2121 176.9071 15.00024811610229
Epoch: 2026-05-23T14:37Z
TLE epoch observation values (Epoch: 2026-05-23T14:37:38.901Z)
Latitude
0.00001°
Longitude
168.2588°
Altitude
573.589 km
Speed
7.572 km/s
True Right ascension
17h 55m 34s
True Declination
0° 00' 00"
Sunlit
Object was in full shadow at epoch
Visualization orbit readout
Latitude
Unknown
Longitude
Unknown
Altitude
Unknown
Speed
Unknown
Apparent Right ascension
Unknown
Apparent Declination
Unknown
Sunlit
N/A
Visualization observer readout
Local Sidereal Time
17:46:48
Azimuth
Unknown
Elevation
Unknown
Doppler factor
Unknown
Orbital elements
Apogee altitude
567.511 km
Perigee altitude
560.101 km
Semi-major axis
6,941.943 km
Eccentricity
0.00053
Inclination
82.7533°
RAAN
268.8944°
Arg. of periapsis
183.2121°
True anomaly
176.9104°
Mean anomaly
176.9071°
Eccentric anomaly
176.90875°
Mean motion
3.75251 °/min
Orbital period
95.94 mins
BSTAR
0.0030202
Loading maneuver chart data...
Computing Atmospheric mass density...
Loading historical data...
Loading historical data...
Loading historical data...
Loading historical data...
Loading historical data...
Loading historical data...
Loading historical data...

Documentation

Showing up to 5 results
|